Location: *
(58.7167°N, 26.1833°E)
Time: 21:59:20
(UTC+00:00)

STPSAT 2 (USA 217) - Pass Details

Date: 25 August 2019
Orbit: 622 x 646 km, 72.0° (Epoch: 29 August)

Event Time Altitude Azimuth Distance (km) Brightness Sun altitude
Exits shadow 19:58:35 - 205° (SSW) 2,443 7.3 -15.2°
Reaches altitude 10° 19:59:41 10° 204° (SSW) 2,004 6.9 -15.3°
Maximum altitude 20:04:09 71° 121° (ESE) 669 4.5 -15.6°
Drops below altitude 10° 20:08:38 10° 38° (NE) 2,008 7.4 -15.9°
Sets 20:10:54 0° 37° (NE) 2,918 8.3 -16.1°
